{"data":{"norad_id":55791,"epoch":"2026-05-25T01:19:14.750976Z","epoch_age_seconds":73837,"freshness":"FRESH","line1":"1 55791U 23028BC  26145.05503184  .00000636  00000+0  61098-4 0  9998","line2":"2 55791  69.9996  11.9677 0002666 267.9151  92.1703 14.98331203178461","mean_motion":14.98331203,"eccentricity":0.0002666,"inclination_deg":69.9996,"raan_deg":11.9677,"arg_perigee_deg":267.9151,"mean_anomaly_deg":92.1703,"bstar":6.1098e-5,"rev_number":17846,"period_min":96.106921962033,"perigee_km":570.19925033571,"apogee_km":573.90509120157,"semimajor_km":6950.1891707686,"source":"CELESTRAK","updated_at":"2026-05-25T13:38:17.888578Z"}}